Location: Bh?mavarapp?du
(16.7041°N, 80.6518°E)
Time: 01:45:18
(UTC+00:00)

SAR-Lupe-4 - Pass Details

Date: 21 April 2021
Orbit: 483 x 483 km, 98.2° (Epoch: 13 April)

Event Time Altitude Azimuth Distance (km) Brightness Sun altitude
Rises 13:28:48 0° 14° (NNE) 2,538 7.2 -8.8°
Reaches altitude 10° 13:30:51 10° 16° (NNE) 1,658 6.3 -9.3°
Maximum altitude 13:34:25 74° 102° (ESE) 503 3.4 -10.1°
Drops below altitude 10° 13:37:57 10° 187° (S) 1,655 6.2 -10.9°
Sets 13:40:01 0° 189° (S) 2,532 7.1 -11.4°
